Ohio State University, OH

2:35 AM EST on February 21, 2018 (GMT -0500)
Ohio State University

Weather History for KOSU - November, 2012

Change the Weather History Date:

Sunday, November 25, 2012

  Actual Average Record
Temperature  
Mean Temperature 36 °F -  
Max Temperature 44 °F 46 °F 64 °F (2006)
Min Temperature 28 °F 31 °F 12 °F (2005)
Degree Days  
Heating Degree Days 29    
Moisture  
Dew Point 23 °F    
Average Humidity 63    
Maximum Humidity 82    
Minimum Humidity 45    
Precipitation  
Precipitation 0.00 in - - ()
Sea Level Pressure  
Sea Level Pressure 30.00 in    
Wind  
Wind Speed 8 mph (SW)    
Max Wind Speed 16 mph    
Max Gust Speed 21 mph    
Visibility 10 miles    
Events      
Averages and records for this station are not official NWS values.
T = Trace of Precipitation, MM = Missing Value Source: NWS Daily Summary

Daily Weather History Graph

Daily Weather History Graph

Search for Another Location

Airport or City:

Trip Planner

Search our weather history database for the weather conditions in past years. The results will help you decide how hot, cold, wet, or windy it might be!

Date:

Astronomy

Nov. 25, 2012 Rise Set
Actual Time 7:29 AM EST 5:09 PM EST
Civil Twilight 6:59 AM EST 5:38 PM EST
Nautical Twilight 6:26 AM EST 6:12 PM EST
Astronomical Twilight 5:53 AM EST 6:44 PM EST
Moon 3:25 PM EST (11/25) 4:42 AM EST (11/25)
Length of Visible Light 10h 39m
Length of Day
9h 39m
Waxing Gibbous, 93% of the Moon is Illuminated
Nov 25
Waxing Gibbous
Nov 28
Full
Dec 6
Last Quarter
Dec 13
New
Dec 20
First Quarter

Hourly Weather History & Observations

Time (EST) Temp. Windchill Dew Point Humidity Pressure Visibility Wind Dir Wind Speed Gust Speed Precip Events Conditions
12:53 AM 30.0 °F 23.2 °F 19.0 °F 64% 30.12 in 10.0 mi WSW 6.9 mph - N/A   Overcast
1:41 AM 28.4 °F 21.2 °F 19.4 °F 69% 30.08 in 10.0 mi WSW 6.9 mph - N/A   Scattered Clouds
1:53 AM 28.9 °F 22.8 °F 19.0 °F 67% 30.10 in 10.0 mi SW 5.8 mph - N/A   Clear
2:53 AM 28.9 °F 23.9 °F 19.9 °F 69% 30.10 in 10.0 mi SSW 4.6 mph - N/A   Mostly Cloudy
3:53 AM 28.9 °F 21.9 °F 19.9 °F 69% 30.08 in 10.0 mi SSW 6.9 mph - N/A   Scattered Clouds
4:53 AM 28.9 °F 21.1 °F 19.9 °F 69% 30.07 in 10.0 mi SSW 8.1 mph - N/A   Mostly Cloudy
5:53 AM 28.9 °F 20.4 °F 19.9 °F 69% 30.05 in 10.0 mi South 9.2 mph - N/A   Mostly Cloudy
6:53 AM 28.9 °F 21.1 °F 19.9 °F 69% 30.04 in 10.0 mi SSW 8.1 mph - N/A   Overcast
7:53 AM 28.9 °F 19.2 °F 21.0 °F 72% 30.01 in 10.0 mi South 11.5 mph - N/A   Overcast
8:53 AM 30.0 °F 20.5 °F 21.0 °F 69% 30.01 in 10.0 mi South 11.5 mph - N/A   Overcast
9:53 AM 32.0 °F 23.6 °F 21.9 °F 66% 29.99 in 10.0 mi SSW 10.4 mph 19.6 mph N/A   Overcast
10:53 AM 35.1 °F 26.9 °F 24.1 °F 64% 29.98 in 10.0 mi SSW 11.5 mph - N/A   Overcast
11:53 AM 39.0 °F 31.8 °F 23.0 °F 53% 29.95 in 10.0 mi SW 11.5 mph 20.7 mph N/A   Clear
12:53 PM 42.1 °F 34.2 °F 23.0 °F 47% 29.91 in 10.0 mi SW 16.1 mph - N/A   Clear
1:53 PM 42.1 °F 36.6 °F 24.1 °F 49% 29.90 in 10.0 mi WSW 9.2 mph - N/A   Clear
2:53 PM 44.1 °F 39.0 °F 24.1 °F 45% 29.89 in 10.0 mi West 9.2 mph - N/A   Clear
3:53 PM 42.1 °F 35.7 °F 24.1 °F 49% 29.90 in 10.0 mi WSW 11.5 mph - N/A   Clear
4:53 PM 39.9 °F 35.1 °F 24.1 °F 53% 29.93 in 10.0 mi SW 6.9 mph - N/A   Clear
5:53 PM 39.0 °F 34.8 °F 25.0 °F 57% 29.94 in 10.0 mi SW 5.8 mph - N/A   Clear
6:53 PM 37.0 °F 32.4 °F 25.0 °F 62% 29.96 in 10.0 mi SW 5.8 mph - N/A   Clear
7:53 PM 35.1 °F 30.1 °F 25.0 °F 67% 29.98 in 10.0 mi SW 5.8 mph - N/A   Clear
8:53 PM 36.0 °F 33.3 °F 26.1 °F 67% 30.00 in 10.0 mi WSW 3.5 mph - N/A   Clear
9:53 PM 35.1 °F 30.1 °F 26.1 °F 70% 30.00 in 10.0 mi West 5.8 mph - N/A   Clear
10:53 PM 35.1 °F 32.2 °F 26.1 °F 70% 30.02 in 10.0 mi West 3.5 mph - N/A   Clear
11:53 PM 33.1 °F 28.7 °F 28.0 °F 82% 30.03 in 10.0 mi West 4.6 mph - N/A   Clear